Time,TemperatureF,DewpointF,PressureIn,WindDirection,WindDirectionDegrees,WindSpeedMPH,WindSpeedGustMPH,Humidity,HourlyPrecipIn,Conditions,Clouds,dailyrainin,SoftwareType,DateUTC
2013-06-24 00:00:00,70.8,69.6,30.09,South,190,0.0,0.0,96,0.00,,,0.00,Wunderground v.1.15,2013-06-24 04:00:00,
2013-06-24 00:01:00,70.8,69.6,30.09,South,190,0.0,0.0,96,0.00,,,0.00,Wunderground v.1.15,2013-06-24 04:01:00,
2013-06-24 00:03:00,70.8,69.6,30.09,South,190,0.0,0.0,96,0.00,,,0.00,Wunderground v.1.15,2013-06-24 04:03:00,
2013-06-24 00:08:00,70.8,69.6,30.09,South,190,0.0,0.0,96,0.00,,,0.00,Wunderground v.1.15,2013-06-24 04:08:00,
2013-06-24 00:13:00,70.7,69.5,30.09,South,190,0.0,0.0,96,0.00,,,0.00,Wunderground v.1.15,2013-06-24 04:13:00,
2013-06-24 00:18:00,70.6,69.4,30.09,South,190,0.0,0.0,96,0.00,,,0.00,Wunderground v.1.15,2013-06-24 04:18:00,
2013-06-24 00:22:00,70.6,69.4,30.09,South,190,0.0,0.0,96,0.00,,,0.00,Wunderground v.1.15,2013-06-24 04:22:00,
2013-06-24 00:27:00,70.6,69.7,30.09,South,190,0.0,0.0,97,0.00,,,0.00,Wunderground v.1.15,2013-06-24 04:27:00,
2013-06-24 00:33:00,70.6,69.7,30.09,South,190,0.0,0.0,97,0.00,,,0.00,Wunderground v.1.15,2013-06-24 04:33:00,
2013-06-24 00:38:00,70.5,69.6,30.09,South,190,0.0,0.0,97,0.00,,,0.00,Wunderground v.1.15,2013-06-24 04:38:00,
2013-06-24 00:44:00,70.4,69.5,30.09,South,190,0.0,0.0,97,0.00,,,0.00,Wunderground v.1.15,2013-06-24 04:44:00,
2013-06-24 00:49:00,70.3,69.4,30.09,South,190,0.0,0.0,97,0.00,,,0.00,Wunderground v.1.15,2013-06-24 04:49:00,
2013-06-24 00:55:00,70.3,69.4,30.09,South,190,0.0,0.0,97,0.00,,,0.00,Wunderground v.1.15,2013-06-24 04:55:00,
2013-06-24 01:01:00,70.4,69.5,30.08,South,190,0.0,0.0,97,0.00,,,0.00,Wunderground v.1.15,2013-06-24 05:01:00,
2013-06-24 01:06:00,70.3,69.4,30.09,South,190,0.0,0.0,97,0.00,,,0.00,Wunderground v.1.15,2013-06-24 05:06:00,
2013-06-24 01:13:00,70.2,69.3,30.08,South,190,0.0,0.0,97,0.00,,,0.00,Wunderground v.1.15,2013-06-24 05:13:00,
2013-06-24 07:51:00,70.8,69.9,30.10,South,180,0.0,-999.0,97,0.00,,,0.13,Wunderground v.1.15,2013-06-24 11:51:00,
2013-06-24 07:56:00,73.0,70.5,30.10,N/A,-737280,0.0,-999.0,92,0.00,,,0.13,Wunderground v.1.15,2013-06-24 11:56:00,
2013-06-24 08:01:00,73.0,70.5,30.10,N/A,-737280,0.0,-999.0,92,0.00,,,0.13,Wunderground v.1.15,2013-06-24 12:01:00,
2013-06-24 08:06:00,75.2,72.1,30.10,South,180,0.0,-999.0,90,0.00,,,0.13,Wunderground v.1.15,2013-06-24 12:06:00,
2013-06-24 08:11:00,75.2,72.1,30.10,South,180,0.0,-999.0,90,0.00,,,0.13,Wunderground v.1.15,2013-06-24 12:11:00,
2013-06-24 08:16:00,76.4,71.2,30.10,South,180,0.0,-999.0,84,0.00,,,0.13,Wunderground v.1.15,2013-06-24 12:16:00,
2013-06-24 08:21:00,76.4,71.2,30.10,South,180,0.0,-999.0,84,0.00,,,0.13,Wunderground v.1.15,2013-06-24 12:21:00,
2013-06-24 08:26:00,76.8,71.9,30.10,South,180,0.0,-999.0,85,0.00,,,0.13,Wunderground v.1.15,2013-06-24 12:26:00,
2013-06-24 08:31:00,76.8,71.9,30.10,South,180,0.0,-999.0,85,0.00,,,0.13,Wunderground v.1.15,2013-06-24 12:31:00,
2013-06-24 08:36:00,76.9,71.7,30.10,N/A,-737280,0.0,-999.0,84,0.00,,,0.13,Wunderground v.1.15,2013-06-24 12:36:00,
2013-06-24 08:41:00,76.9,71.7,30.10,N/A,-737280,0.0,-999.0,84,0.00,,,0.13,Wunderground v.1.15,2013-06-24 12:41:00,
2013-06-24 08:46:00,77.0,71.8,30.10,N/A,-737280,0.0,-999.0,84,0.00,,,0.13,Wunderground v.1.15,2013-06-24 12:46:00,
2013-06-24 08:51:00,77.0,71.8,30.10,N/A,-737280,0.0,-999.0,84,0.00,,,0.13,Wunderground v.1.15,2013-06-24 12:51:00,
2013-06-24 08:56:00,76.6,72.1,30.10,South,180,0.0,-999.0,86,0.00,,,0.13,Wunderground v.1.15,2013-06-24 12:56:00,
2013-06-24 09:01:00,76.6,72.1,30.10,South,180,0.0,-999.0,86,0.00,,,0.13,Wunderground v.1.15,2013-06-24 13:01:00,
2013-06-24 09:06:00,76.5,71.7,30.10,N/A,-737280,0.0,-999.0,85,0.00,,,0.13,Wunderground v.1.15,2013-06-24 13:06:00,
2013-06-24 09:11:00,76.5,71.7,30.10,N/A,-737280,0.0,-999.0,85,0.00,,,0.13,Wunderground v.1.15,2013-06-24 13:11:00,
2013-06-24 09:16:00,76.6,72.4,30.10,N/A,-737280,0.0,-999.0,87,0.00,,,0.13,Wunderground v.1.15,2013-06-24 13:16:00,
2013-06-24 09:21:00,76.6,72.4,30.10,N/A,-737280,0.0,-999.0,87,0.00,,,0.13,Wunderground v.1.15,2013-06-24 13:21:00,
2013-06-24 09:26:00,77.4,72.9,30.10,SSW,203,0.0,-999.0,86,0.00,,,0.13,Wunderground v.1.15,2013-06-24 13:26:00,
2013-06-24 09:31:00,77.4,72.9,30.10,SSW,203,0.0,-999.0,86,0.00,,,0.13,Wunderground v.1.15,2013-06-24 13:31:00,
2013-06-24 09:36:00,78.7,71.6,30.11,SSW,203,0.0,-999.0,79,0.00,,,0.13,Wunderground v.1.15,2013-06-24 13:36:00,
2013-06-24 09:41:00,78.7,71.6,30.11,SSW,203,0.0,-999.0,79,0.00,,,0.13,Wunderground v.1.15,2013-06-24 13:41:00,
2013-06-24 09:46:00,79.7,73.3,30.10,SSW,203,0.0,-999.0,81,0.00,,,0.13,Wunderground v.1.15,2013-06-24 13:46:00,
2013-06-24 09:51:00,79.7,73.3,30.10,SSW,203,0.0,-999.0,81,0.00,,,0.13,Wunderground v.1.15,2013-06-24 13:51:00,
2013-06-24 09:56:00,80.4,73.3,30.10,SSW,203,0.0,-999.0,79,0.00,,,0.13,Wunderground v.1.15,2013-06-24 13:56:00,
2013-06-24 10:01:00,80.4,73.3,30.10,SSW,203,0.0,-999.0,79,0.00,,,0.13,Wunderground v.1.15,2013-06-24 14:01:00,
2013-06-24 10:06:00,80.8,74.4,30.10,SSW,203,0.0,-999.0,81,0.00,,,0.13,Wunderground v.1.15,2013-06-24 14:06:00,
2013-06-24 10:11:00,80.8,74.4,30.10,SSW,203,0.0,-999.0,81,0.00,,,0.13,Wunderground v.1.15,2013-06-24 14:11:00,
2013-06-24 10:16:00,82.0,74.8,30.10,N/A,-737280,0.0,-999.0,79,0.00,,,0.13,Wunderground v.1.15,2013-06-24 14:16:00,
2013-06-24 10:21:00,82.0,74.8,30.10,N/A,-737280,0.0,-999.0,79,0.00,,,0.13,Wunderground v.1.15,2013-06-24 14:21:00,
2013-06-24 10:26:00,82.7,75.5,30.10,SSW,203,0.0,-999.0,79,0.00,,,0.13,Wunderground v.1.15,2013-06-24 14:26:00,
2013-06-24 10:31:00,82.7,75.5,30.10,SSW,203,0.0,-999.0,79,0.00,,,0.13,Wunderground v.1.15,2013-06-24 14:31:00,
2013-06-24 10:36:00,82.3,74.7,29.67,SSW,203,0.0,-999.0,78,0.00,,,0.13,Wunderground v.1.15,2013-06-24 14:36:00,
2013-06-24 10:41:00,82.3,74.7,29.67,SSW,203,0.0,-999.0,78,0.00,,,0.13,Wunderground v.1.15,2013-06-24 14:41:00,
2013-06-24 10:46:00,83.4,75.8,29.80,SSW,203,1.0,-999.0,78,0.00,,,0.13,Wunderground v.1.15,2013-06-24 14:46:00,
2013-06-24 10:51:00,83.4,75.8,29.80,SSW,203,1.0,-999.0,78,0.00,,,0.13,Wunderground v.1.15,2013-06-24 14:51:00,
2013-06-24 10:56:00,85.1,75.9,29.80,SSW,203,0.0,-999.0,74,0.00,,,0.13,Wunderground v.1.15,2013-06-24 14:56:00,
2013-06-24 11:01:00,85.1,75.9,29.80,SSW,203,0.0,-999.0,74,0.00,,,0.13,Wunderground v.1.15,2013-06-24 15:01:00,
2013-06-24 11:06:00,83.4,74.6,29.92,SSW,203,2.0,-999.0,75,0.00,,,0.13,Wunderground v.1.15,2013-06-24 15:06:00,
2013-06-24 11:11:00,83.4,74.6,29.92,SSW,203,2.0,-999.0,75,0.00,,,0.13,Wunderground v.1.15,2013-06-24 15:11:00,
2013-06-24 11:16:00,84.1,75.7,30.09,SSW,203,1.0,-999.0,76,0.00,,,0.13,Wunderground v.1.15,2013-06-24 15:16:00,
2013-06-24 11:21:00,84.1,75.7,30.09,SSW,203,1.0,-999.0,76,0.00,,,0.13,Wunderground v.1.15,2013-06-24 15:21:00,
2013-06-24 11:26:00,85.6,76.4,30.07,SSW,203,1.0,-999.0,74,0.00,,,0.13,Wunderground v.1.15,2013-06-24 15:26:00,
2013-06-24 11:31:00,85.6,76.4,30.07,SSW,203,1.0,-999.0,74,0.00,,,0.13,Wunderground v.1.15,2013-06-24 15:31:00,
2013-06-24 11:36:00,87.3,78.0,30.02,SSW,203,1.0,-999.0,74,0.00,,,0.13,Wunderground v.1.15,2013-06-24 15:36:00,
2013-06-24 11:41:00,87.3,78.0,30.02,SSW,203,1.0,-999.0,74,0.00,,,0.13,Wunderground v.1.15,2013-06-24 15:41:00,
2013-06-24 11:46:00,87.6,76.6,30.06,SSW,203,1.0,-999.0,70,0.00,,,0.13,Wunderground v.1.15,2013-06-24 15:46:00,
2013-06-24 11:51:00,87.6,76.6,30.06,SSW,203,1.0,-999.0,70,0.00,,,0.13,Wunderground v.1.15,2013-06-24 15:51:00,
2013-06-24 11:56:00,88.1,76.2,30.03,SSW,203,1.0,-999.0,68,0.00,,,0.13,Wunderground v.1.15,2013-06-24 15:56:00,
2013-06-24 12:01:00,88.1,76.2,30.03,SSW,203,1.0,-999.0,68,0.00,,,0.13,Wunderground v.1.15,2013-06-24 16:01:00,
2013-06-24 12:06:00,88.5,76.6,29.91,SSW,203,0.0,-999.0,68,0.00,,,0.13,Wunderground v.1.15,2013-06-24 16:06:00,
2013-06-24 12:11:00,88.5,76.6,29.91,SSW,203,0.0,-999.0,68,0.00,,,0.13,Wunderground v.1.15,2013-06-24 16:11:00,
2013-06-24 12:16:00,88.8,76.9,29.78,SSW,203,1.0,-999.0,68,0.00,,,0.13,Wunderground v.1.15,2013-06-24 16:16:00,
2013-06-24 12:21:00,88.8,76.9,29.78,SSW,203,1.0,-999.0,68,0.00,,,0.13,Wunderground v.1.15,2013-06-24 16:21:00,
2013-06-24 12:26:00,89.5,77.5,29.74,SSW,203,1.0,-999.0,68,0.00,,,0.13,Wunderground v.1.15,2013-06-24 16:26:00,
2013-06-24 12:31:00,89.5,77.5,29.74,SSW,203,1.0,-999.0,68,0.00,,,0.13,Wunderground v.1.15,2013-06-24 16:31:00,
2013-06-24 12:36:00,90.1,78.6,29.99,SSW,203,1.0,-999.0,69,0.00,,,0.13,Wunderground v.1.15,2013-06-24 16:36:00,
2013-06-24 12:41:00,90.1,78.6,29.99,SSW,203,1.0,-999.0,69,0.00,,,0.13,Wunderground v.1.15,2013-06-24 16:41:00,
2013-06-24 12:46:00,90.4,76.6,30.08,SW,225,1.0,-999.0,64,0.00,,,0.13,Wunderground v.1.15,2013-06-24 16:46:00,
2013-06-24 12:51:00,90.4,76.6,30.08,SW,225,1.0,-999.0,64,0.00,,,0.13,Wunderground v.1.15,2013-06-24 16:51:00,
2013-06-24 12:56:00,90.4,78.8,30.07,SW,225,1.0,-999.0,69,0.00,,,0.13,Wunderground v.1.15,2013-06-24 16:56:00,
2013-06-24 13:01:00,90.4,78.8,30.07,SW,225,1.0,-999.0,69,0.00,,,0.13,Wunderground v.1.15,2013-06-24 17:01:00,
2013-06-24 13:06:00,90.1,77.7,30.07,SW,225,1.0,-999.0,67,0.00,,,0.13,Wunderground v.1.15,2013-06-24 17:06:00,
2013-06-24 13:11:00,90.1,77.7,30.07,SW,225,1.0,-999.0,67,0.00,,,0.13,Wunderground v.1.15,2013-06-24 17:11:00,
2013-06-24 13:16:00,88.3,75.9,30.01,SW,225,1.0,-999.0,67,0.00,,,0.13,Wunderground v.1.15,2013-06-24 17:16:00,
2013-06-24 13:21:00,88.3,75.9,30.01,SW,225,1.0,-999.0,67,0.00,,,0.13,Wunderground v.1.15,2013-06-24 17:21:00,
2013-06-24 13:26:00,88.4,75.6,30.06,SW,225,1.0,-999.0,66,0.00,,,0.13,Wunderground v.1.15,2013-06-24 17:26:00,
2013-06-24 13:31:00,88.4,75.6,30.06,SW,225,1.0,-999.0,66,0.00,,,0.13,Wunderground v.1.15,2013-06-24 17:31:00,
2013-06-24 13:36:00,88.3,76.4,30.05,SW,225,2.0,-999.0,68,0.00,,,0.13,Wunderground v.1.15,2013-06-24 17:36:00,
2013-06-24 13:41:00,88.3,76.4,30.05,SW,225,2.0,-999.0,68,0.00,,,0.13,Wunderground v.1.15,2013-06-24 17:41:00,
2013-06-24 13:46:00,87.9,74.7,30.05,SW,225,2.0,-999.0,65,0.00,,,0.13,Wunderground v.1.15,2013-06-24 17:46:00,
2013-06-24 13:51:00,87.9,74.7,30.05,SW,225,2.0,-999.0,65,0.00,,,0.13,Wunderground v.1.15,2013-06-24 17:51:00,
2013-06-24 13:56:00,88.3,78.1,30.05,SW,225,1.0,-999.0,72,0.00,,,0.13,Wunderground v.1.15,2013-06-24 17:56:00,
2013-06-24 14:01:00,88.3,78.1,30.05,SW,225,1.0,-999.0,72,0.00,,,0.13,Wunderground v.1.15,2013-06-24 18:01:00,
2013-06-24 14:06:00,88.4,76.0,29.88,SW,225,1.0,-999.0,67,0.00,,,0.13,Wunderground v.1.15,2013-06-24 18:06:00,
2013-06-24 14:11:00,88.4,76.0,29.88,SW,225,1.0,-999.0,67,0.00,,,0.13,Wunderground v.1.15,2013-06-24 18:11:00,
2013-06-24 14:16:00,88.6,74.9,29.88,SW,225,1.0,-999.0,64,0.00,,,0.13,Wunderground v.1.15,2013-06-24 18:16:00,
2013-06-24 14:21:00,88.6,74.9,29.88,SW,225,1.0,-999.0,64,0.00,,,0.13,Wunderground v.1.15,2013-06-24 18:21:00,
2013-06-24 14:26:00,88.7,77.7,30.05,SW,225,0.0,-999.0,70,0.00,,,0.13,Wunderground v.1.15,2013-06-24 18:26:00,
2013-06-24 14:31:00,88.7,77.7,30.05,SW,225,0.0,-999.0,70,0.00,,,0.13,Wunderground v.1.15,2013-06-24 18:31:00,
2013-06-24 14:36:00,89.1,76.7,30.04,SW,225,0.0,-999.0,67,0.00,,,0.13,Wunderground v.1.15,2013-06-24 18:36:00,
2013-06-24 14:41:00,89.1,76.7,30.04,SW,225,0.0,-999.0,67,0.00,,,0.13,Wunderground v.1.15,2013-06-24 18:41:00,
2013-06-24 14:46:00,87.8,77.2,30.04,SW,225,0.0,-999.0,71,0.00,,,0.13,Wunderground v.1.15,2013-06-24 18:46:00,
2013-06-24 14:51:00,87.8,77.2,30.04,SW,225,0.0,-999.0,71,0.00,,,0.13,Wunderground v.1.15,2013-06-24 18:51:00,
2013-06-24 14:56:00,87.2,75.3,30.03,SW,225,0.0,-999.0,68,0.00,,,0.13,Wunderground v.1.15,2013-06-24 18:56:00,
2013-06-24 15:01:00,87.2,75.3,30.03,SW,225,0.0,-999.0,68,0.00,,,0.13,Wunderground v.1.15,2013-06-24 19:01:00,
2013-06-24 15:06:00,86.1,78.0,30.03,SW,225,0.0,-999.0,77,0.03,,,0.13,Wunderground v.1.15,2013-06-24 19:06:00,
2013-06-24 15:11:00,86.1,78.0,30.03,SW,225,0.0,-999.0,77,0.03,,,0.13,Wunderground v.1.15,2013-06-24 19:11:00,
2013-06-24 15:16:00,81.3,73.4,30.06,SW,225,2.0,-999.0,77,0.09,,,0.13,Wunderground v.1.15,2013-06-24 19:16:00,
2013-06-24 15:21:00,81.3,73.4,30.06,SW,225,2.0,-999.0,77,0.09,,,0.13,Wunderground v.1.15,2013-06-24 19:21:00,
2013-06-24 15:26:00,76.1,71.6,30.05,WNW,293,1.0,-999.0,86,0.13,,,0.13,Wunderground v.1.15,2013-06-24 19:26:00,
2013-06-24 15:31:00,76.1,71.6,30.05,WNW,293,1.0,-999.0,86,0.13,,,0.13,Wunderground v.1.15,2013-06-24 19:31:00,
2013-06-24 15:36:00,75.2,71.7,30.05,NE,45,3.0,-999.0,89,0.13,,,0.13,Wunderground v.1.15,2013-06-24 19:36:00,
2013-06-24 15:41:00,75.2,71.7,30.05,NE,45,3.0,-999.0,89,0.13,,,0.13,Wunderground v.1.15,2013-06-24 19:41:00,
2013-06-24 15:46:00,75.2,70.7,30.06,SE,135,3.0,-999.0,86,0.13,,,0.13,Wunderground v.1.15,2013-06-24 19:46:00,
2013-06-24 15:51:00,75.2,70.7,30.06,SE,135,3.0,-999.0,86,0.13,,,0.13,Wunderground v.1.15,2013-06-24 19:51:00,
2013-06-24 15:53:00,75.2,70.7,30.06,SE,135,3.0,-999.0,86,0.13,,,0.13,Wunderground v.1.15,2013-06-24 19:53:00,
2013-06-24 15:56:00,73.5,68.7,30.05,ESE,113,3.0,-999.0,85,0.13,,,0.13,Wunderground v.1.15,2013-06-24 19:56:00,
2013-06-24 15:58:00,73.5,68.7,30.05,ESE,113,3.0,-999.0,85,0.13,,,0.13,Wunderground v.1.15,2013-06-24 19:58:00,
2013-06-24 16:01:00,73.5,68.7,30.05,ESE,113,3.0,-999.0,85,0.13,,,0.13,Wunderground v.1.15,2013-06-24 20:01:00,
2013-06-24 16:03:00,73.5,68.7,30.05,ESE,113,3.0,-999.0,85,0.13,,,0.13,Wunderground v.1.15,2013-06-24 20:03:00,
2013-06-24 16:06:00,72.2,68.8,30.06,ESE,113,0.0,-999.0,89,0.10,,,0.13,Wunderground v.1.15,2013-06-24 20:06:00,
2013-06-24 16:08:00,72.2,68.8,30.06,ESE,113,0.0,-999.0,89,0.10,,,0.13,Wunderground v.1.15,2013-06-24 20:08:00,
2013-06-24 16:11:00,72.2,68.8,30.06,ESE,113,0.0,-999.0,89,0.10,,,0.13,Wunderground v.1.15,2013-06-24 20:11:00,
2013-06-24 16:13:00,72.2,68.8,30.06,ESE,113,0.0,-999.0,89,0.10,,,0.13,Wunderground v.1.15,2013-06-24 20:13:00,
2013-06-24 16:16:00,71.0,67.9,30.08,South,180,4.0,-999.0,90,0.04,,,0.13,Wunderground v.1.15,2013-06-24 20:16:00,
2013-06-24 16:18:00,71.0,67.9,30.08,South,180,4.0,-999.0,90,0.04,,,0.13,Wunderground v.1.15,2013-06-24 20:18:00,
2013-06-24 16:21:00,71.0,67.9,30.08,South,180,4.0,-999.0,90,0.04,,,0.13,Wunderground v.1.15,2013-06-24 20:21:00,
2013-06-24 16:23:00,71.0,67.9,30.08,South,180,4.0,-999.0,90,0.04,,,0.13,Wunderground v.1.15,2013-06-24 20:23:00,
2013-06-24 16:26:00,71.3,68.9,30.08,South,180,2.0,-999.0,92,0.00,,,0.13,Wunderground v.1.15,2013-06-24 20:26:00,
2013-06-24 16:28:00,71.3,68.9,30.08,South,180,2.0,-999.0,92,0.00,,,0.13,Wunderground v.1.15,2013-06-24 20:28:00,
2013-06-24 16:31:00,71.3,68.9,30.08,South,180,2.0,-999.0,92,0.00,,,0.13,Wunderground v.1.15,2013-06-24 20:31:00,
2013-06-24 16:33:00,71.3,68.9,30.08,South,180,2.0,-999.0,92,0.00,,,0.13,Wunderground v.1.15,2013-06-24 20:33:00,
2013-06-24 16:36:00,71.5,68.7,30.07,SSE,158,1.0,-999.0,91,0.00,,,0.13,Wunderground v.1.15,2013-06-24 20:36:00,
2013-06-24 16:38:00,71.5,68.7,30.07,SSE,158,1.0,-999.0,91,0.00,,,0.13,Wunderground v.1.15,2013-06-24 20:38:00,
2013-06-24 16:41:00,71.5,68.7,30.07,SSE,158,1.0,-999.0,91,0.00,,,0.13,Wunderground v.1.15,2013-06-24 20:41:00,
2013-06-24 16:43:00,71.5,68.7,30.07,SSE,158,1.0,-999.0,91,0.00,,,0.13,Wunderground v.1.15,2013-06-24 20:43:00,
2013-06-24 16:46:00,71.5,69.4,30.05,SSE,158,0.0,-999.0,93,0.00,,,0.13,Wunderground v.1.15,2013-06-24 20:46:00,
2013-06-24 16:48:00,71.5,69.4,30.05,SSE,158,0.0,-999.0,93,0.00,,,0.13,Wunderground v.1.15,2013-06-24 20:48:00,
2013-06-24 16:51:00,71.5,69.4,30.05,SSE,158,0.0,-999.0,93,0.00,,,0.13,Wunderground v.1.15,2013-06-24 20:51:00,
2013-06-24 16:53:00,71.5,69.4,30.05,SSE,158,0.0,-999.0,93,0.00,,,0.13,Wunderground v.1.15,2013-06-24 20:53:00,
2013-06-24 16:56:00,71.8,69.7,30.05,SSE,158,0.0,-999.0,93,0.00,,,0.13,Wunderground v.1.15,2013-06-24 20:56:00,
2013-06-24 16:58:00,71.8,69.7,30.05,SSE,158,0.0,-999.0,93,0.00,,,0.13,Wunderground v.1.15,2013-06-24 20:58:00,
2013-06-24 17:01:00,71.8,69.7,30.05,SSE,158,0.0,-999.0,93,0.00,,,0.13,Wunderground v.1.15,2013-06-24 21:01:00,
2013-06-24 17:03:00,71.8,69.7,30.05,SSE,158,0.0,-999.0,93,0.00,,,0.13,Wunderground v.1.15,2013-06-24 21:03:00,
2013-06-24 17:06:00,72.4,69.6,30.05,SSE,158,0.0,-999.0,91,0.00,,,0.13,Wunderground v.1.15,2013-06-24 21:06:00,
2013-06-24 17:08:00,72.4,69.6,30.05,SSE,158,0.0,-999.0,91,0.00,,,0.13,Wunderground v.1.15,2013-06-24 21:08:00,
2013-06-24 17:11:00,72.4,69.6,30.05,SSE,158,0.0,-999.0,91,0.00,,,0.13,Wunderground v.1.15,2013-06-24 21:11:00,
2013-06-24 17:13:00,72.4,69.6,30.05,SSE,158,0.0,-999.0,91,0.00,,,0.13,Wunderground v.1.15,2013-06-24 21:13:00,
2013-06-24 17:16:00,73.9,70.1,30.04,SSE,158,0.0,-999.0,88,0.00,,,0.13,Wunderground v.1.15,2013-06-24 21:16:00,
2013-06-24 17:18:00,73.9,70.1,30.04,SSE,158,0.0,-999.0,88,0.00,,,0.13,Wunderground v.1.15,2013-06-24 21:18:00,
2013-06-24 17:21:00,73.9,70.1,30.04,SSE,158,0.0,-999.0,88,0.00,,,0.13,Wunderground v.1.15,2013-06-24 21:21:00,
2013-06-24 17:23:00,73.9,70.1,30.04,SSE,158,0.0,-999.0,88,0.00,,,0.13,Wunderground v.1.15,2013-06-24 21:23:00,
2013-06-24 17:26:00,75.2,69.3,29.95,SSE,158,1.0,-999.0,82,0.00,,,0.13,Wunderground v.1.15,2013-06-24 21:26:00,
2013-06-24 17:28:00,75.2,69.3,29.95,SSE,158,1.0,-999.0,82,0.00,,,0.13,Wunderground v.1.15,2013-06-24 21:28:00,
2013-06-24 17:31:00,75.2,69.3,29.95,SSE,158,1.0,-999.0,82,0.00,,,0.13,Wunderground v.1.15,2013-06-24 21:31:00,
2013-06-24 17:33:00,75.2,69.3,29.95,SSE,158,1.0,-999.0,82,0.00,,,0.13,Wunderground v.1.15,2013-06-24 21:33:00,
2013-06-24 17:36:00,75.7,70.2,30.03,SSE,158,1.0,-999.0,83,0.00,,,0.13,Wunderground v.1.15,2013-06-24 21:36:00,
2013-06-24 17:38:00,75.7,70.2,30.03,SSE,158,1.0,-999.0,83,0.00,,,0.13,Wunderground v.1.15,2013-06-24 21:38:00,
2013-06-24 17:41:00,75.7,70.2,30.03,SSE,158,1.0,-999.0,83,0.00,,,0.13,Wunderground v.1.15,2013-06-24 21:41:00,
2013-06-24 17:43:00,75.7,70.2,30.03,SSE,158,1.0,-999.0,83,0.00,,,0.13,Wunderground v.1.15,2013-06-24 21:43:00,
2013-06-24 17:46:00,76.3,70.8,30.03,SSE,158,1.0,-999.0,83,0.00,,,0.13,Wunderground v.1.15,2013-06-24 21:46:00,
2013-06-24 17:48:00,76.3,70.8,30.03,SSE,158,1.0,-999.0,83,0.00,,,0.13,Wunderground v.1.15,2013-06-24 21:48:00,
2013-06-24 17:51:00,76.3,70.8,30.03,SSE,158,1.0,-999.0,83,0.00,,,0.13,Wunderground v.1.15,2013-06-24 21:51:00,
2013-06-24 17:53:00,76.3,70.8,30.03,SSE,158,1.0,-999.0,83,0.00,,,0.13,Wunderground v.1.15,2013-06-24 21:53:00,
2013-06-24 17:56:00,76.4,70.9,30.03,SSE,158,0.0,-999.0,83,0.00,,,0.13,Wunderground v.1.15,2013-06-24 21:56:00,
2013-06-24 17:58:00,76.4,70.9,30.03,SSE,158,0.0,-999.0,83,0.00,,,0.13,Wunderground v.1.15,2013-06-24 21:58:00,
2013-06-24 18:01:00,76.4,70.9,30.03,SSE,158,0.0,-999.0,83,0.00,,,0.13,Wunderground v.1.15,2013-06-24 22:01:00,
2013-06-24 18:03:00,76.4,70.9,30.03,SSE,158,0.0,-999.0,83,0.00,,,0.13,Wunderground v.1.15,2013-06-24 22:03:00,
2013-06-24 18:06:00,76.4,71.6,30.03,SSE,158,0.0,-999.0,85,0.00,,,0.13,Wunderground v.1.15,2013-06-24 22:06:00,
2013-06-24 18:08:00,76.4,71.6,30.03,SSE,158,0.0,-999.0,85,0.00,,,0.13,Wunderground v.1.15,2013-06-24 22:08:00,
2013-06-24 18:11:00,76.4,71.6,30.03,SSE,158,0.0,-999.0,85,0.00,,,0.13,Wunderground v.1.15,2013-06-24 22:11:00,
2013-06-24 18:13:00,76.4,71.6,30.03,SSE,158,0.0,-999.0,85,0.00,,,0.13,Wunderground v.1.15,2013-06-24 22:13:00,
2013-06-24 18:16:00,76.0,70.5,30.02,SSE,158,1.0,-999.0,83,0.00,,,0.13,Wunderground v.1.15,2013-06-24 22:16:00,
2013-06-24 18:18:00,76.0,70.5,30.02,SSE,158,1.0,-999.0,83,0.00,,,0.13,Wunderground v.1.15,2013-06-24 22:18:00,
2013-06-24 18:21:00,76.0,70.5,30.02,SSE,158,1.0,-999.0,83,0.00,,,0.13,Wunderground v.1.15,2013-06-24 22:21:00,
2013-06-24 18:23:00,76.0,70.5,30.02,SSE,158,1.0,-999.0,83,0.00,,,0.13,Wunderground v.1.15,2013-06-24 22:23:00,
2013-06-24 18:26:00,75.9,70.4,30.03,SSE,158,1.0,-999.0,83,0.00,,,0.13,Wunderground v.1.15,2013-06-24 22:26:00,
2013-06-24 18:28:00,75.9,70.4,30.03,SSE,158,1.0,-999.0,83,0.00,,,0.13,Wunderground v.1.15,2013-06-24 22:28:00,
2013-06-24 18:31:00,75.9,70.4,30.03,SSE,158,1.0,-999.0,83,0.00,,,0.13,Wunderground v.1.15,2013-06-24 22:31:00,
2013-06-24 18:33:00,75.9,70.4,30.03,SSE,158,1.0,-999.0,83,0.00,,,0.13,Wunderground v.1.15,2013-06-24 22:33:00,
2013-06-24 18:36:00,75.8,69.9,29.99,SSE,158,1.0,-999.0,82,0.00,,,0.13,Wunderground v.1.15,2013-06-24 22:36:00,
2013-06-24 18:38:00,75.8,69.9,29.99,SSE,158,1.0,-999.0,82,0.00,,,0.13,Wunderground v.1.15,2013-06-24 22:38:00,
2013-06-24 18:41:00,75.8,69.9,29.99,SSE,158,1.0,-999.0,82,0.00,,,0.13,Wunderground v.1.15,2013-06-24 22:41:00,
2013-06-24 18:43:00,75.8,69.9,29.99,SSE,158,1.0,-999.0,82,0.00,,,0.13,Wunderground v.1.15,2013-06-24 22:43:00,
2013-06-24 18:46:00,75.6,70.1,30.03,SSE,158,1.0,-999.0,83,0.00,,,0.13,Wunderground v.1.15,2013-06-24 22:46:00,
2013-06-24 18:48:00,75.6,70.1,30.03,SSE,158,1.0,-999.0,83,0.00,,,0.13,Wunderground v.1.15,2013-06-24 22:48:00,
2013-06-24 18:51:00,75.6,70.1,30.03,SSE,158,1.0,-999.0,83,0.00,,,0.13,Wunderground v.1.15,2013-06-24 22:51:00,
2013-06-24 18:53:00,75.6,70.1,30.03,SSE,158,1.0,-999.0,83,0.00,,,0.13,Wunderground v.1.15,2013-06-24 22:53:00,
2013-06-24 18:56:00,75.4,70.2,30.03,SSE,158,1.0,-999.0,84,0.00,,,0.13,Wunderground v.1.15,2013-06-24 22:56:00,
2013-06-24 18:58:00,75.4,70.2,30.03,SSE,158,1.0,-999.0,84,0.00,,,0.13,Wunderground v.1.15,2013-06-24 22:58:00,
2013-06-24 19:01:00,75.4,70.2,30.03,SSE,158,1.0,-999.0,84,0.00,,,0.13,Wunderground v.1.15,2013-06-24 23:01:00,
2013-06-24 19:03:00,75.4,70.2,30.03,SSE,158,1.0,-999.0,84,0.00,,,0.13,Wunderground v.1.15,2013-06-24 23:03:00,
2013-06-24 19:06:00,75.3,70.1,30.01,SSE,158,0.0,-999.0,84,0.00,,,0.13,Wunderground v.1.15,2013-06-24 23:06:00,
2013-06-24 19:08:00,75.3,70.1,30.01,SSE,158,0.0,-999.0,84,0.00,,,0.13,Wunderground v.1.15,2013-06-24 23:08:00,
2013-06-24 19:11:00,75.3,70.1,30.01,SSE,158,0.0,-999.0,84,0.00,,,0.13,Wunderground v.1.15,2013-06-24 23:11:00,
2013-06-24 19:13:00,75.3,70.1,30.01,SSE,158,0.0,-999.0,84,0.00,,,0.13,Wunderground v.1.15,2013-06-24 23:13:00,
2013-06-24 19:16:00,75.0,70.2,30.02,SSE,158,0.0,-999.0,85,0.00,,,0.13,Wunderground v.1.15,2013-06-24 23:16:00,
2013-06-24 19:18:00,75.0,70.2,30.02,SSE,158,0.0,-999.0,85,0.00,,,0.13,Wunderground v.1.15,2013-06-24 23:18:00,
2013-06-24 19:21:00,75.0,70.2,30.02,SSE,158,0.0,-999.0,85,0.00,,,0.13,Wunderground v.1.15,2013-06-24 23:21:00,
2013-06-24 19:23:00,75.0,70.2,30.02,SSE,158,0.0,-999.0,85,0.00,,,0.13,Wunderground v.1.15,2013-06-24 23:23:00,
2013-06-24 19:26:00,74.9,70.4,30.02,SSE,158,0.0,-999.0,86,0.00,,,0.13,Wunderground v.1.15,2013-06-24 23:26:00,
2013-06-24 19:28:00,74.9,70.4,30.02,SSE,158,0.0,-999.0,86,0.00,,,0.13,Wunderground v.1.15,2013-06-24 23:28:00,
2013-06-24 19:31:00,74.9,70.4,30.02,SSE,158,0.0,-999.0,86,0.00,,,0.13,Wunderground v.1.15,2013-06-24 23:31:00,
2013-06-24 19:33:00,74.9,70.4,30.02,SSE,158,0.0,-999.0,86,0.00,,,0.13,Wunderground v.1.15,2013-06-24 23:33:00,
2013-06-24 19:36:00,74.5,70.7,29.93,SSE,158,0.0,-999.0,88,0.00,,,0.13,Wunderground v.1.15,2013-06-24 23:36:00,
2013-06-24 19:38:00,74.5,70.7,29.93,SSE,158,0.0,-999.0,88,0.00,,,0.13,Wunderground v.1.15,2013-06-24 23:38:00,
2013-06-24 19:41:00,74.5,70.7,29.93,SSE,158,0.0,-999.0,88,0.00,,,0.13,Wunderground v.1.15,2013-06-24 23:41:00,
2013-06-24 19:43:00,74.5,70.7,29.93,SSE,158,0.0,-999.0,88,0.00,,,0.13,Wunderground v.1.15,2013-06-24 23:43:00,
2013-06-24 19:46:00,74.3,70.5,30.02,SSE,158,0.0,-999.0,88,0.00,,,0.13,Wunderground v.1.15,2013-06-24 23:46:00,
2013-06-24 19:48:00,74.3,70.5,30.02,SSE,158,0.0,-999.0,88,0.00,,,0.13,Wunderground v.1.15,2013-06-24 23:48:00,
2013-06-24 19:51:00,74.3,70.5,30.02,SSE,158,0.0,-999.0,88,0.00,,,0.13,Wunderground v.1.15,2013-06-24 23:51:00,
2013-06-24 19:53:00,74.3,70.5,30.02,SSE,158,0.0,-999.0,88,0.00,,,0.13,Wunderground v.1.15,2013-06-24 23:53:00,
2013-06-24 19:56:00,74.1,71.0,30.02,SSE,158,0.0,-999.0,90,0.00,,,0.13,Wunderground v.1.15,2013-06-24 23:56:00,
2013-06-24 19:58:00,74.1,71.0,30.02,SSE,158,0.0,-999.0,90,0.00,,,0.13,Wunderground v.1.15,2013-06-24 23:58:00,
2013-06-24 20:01:00,74.1,71.0,30.02,SSE,158,0.0,-999.0,90,0.00,,,0.13,Wunderground v.1.15,2013-06-25 00:01:00,
2013-06-24 20:03:00,74.1,71.0,30.02,SSE,158,0.0,-999.0,90,0.00,,,0.13,Wunderground v.1.15,2013-06-25 00:03:00,
2013-06-24 20:06:00,73.8,70.7,30.02,N/A,-737280,0.0,-999.0,90,0.00,,,0.13,Wunderground v.1.15,2013-06-25 00:06:00,
2013-06-24 20:08:00,73.8,70.7,30.02,N/A,-737280,0.0,-999.0,90,0.00,,,0.13,Wunderground v.1.15,2013-06-25 00:08:00,
2013-06-24 20:11:00,73.8,70.7,30.02,N/A,-737280,0.0,-999.0,90,0.00,,,0.13,Wunderground v.1.15,2013-06-25 00:11:00,
2013-06-24 20:13:00,73.8,70.7,30.02,N/A,-737280,0.0,-999.0,90,0.00,,,0.13,Wunderground v.1.15,2013-06-25 00:13:00,
2013-06-24 20:16:00,73.3,70.5,29.95,SSE,158,0.0,-999.0,91,0.00,,,0.13,Wunderground v.1.15,2013-06-25 00:16:00,
2013-06-24 20:18:00,73.3,70.5,29.95,SSE,158,0.0,-999.0,91,0.00,,,0.13,Wunderground v.1.15,2013-06-25 00:18:00,
2013-06-24 20:21:00,73.3,70.5,29.95,SSE,158,0.0,-999.0,91,0.00,,,0.13,Wunderground v.1.15,2013-06-25 00:21:00,
2013-06-24 20:23:00,73.3,70.5,29.95,SSE,158,0.0,-999.0,91,0.00,,,0.13,Wunderground v.1.15,2013-06-25 00:23:00,
2013-06-24 20:26:00,72.8,70.7,29.99,SSE,158,0.0,-999.0,93,0.00,,,0.13,Wunderground v.1.15,2013-06-25 00:26:00,
2013-06-24 20:28:00,72.8,70.7,29.99,SSE,158,0.0,-999.0,93,0.00,,,0.13,Wunderground v.1.15,2013-06-25 00:28:00,
2013-06-24 20:31:00,72.8,70.7,29.99,SSE,158,0.0,-999.0,93,0.00,,,0.13,Wunderground v.1.15,2013-06-25 00:31:00,
2013-06-24 20:33:00,72.8,70.7,29.99,SSE,158,0.0,-999.0,93,0.00,,,0.13,Wunderground v.1.15,2013-06-25 00:33:00,
2013-06-24 20:36:00,72.2,70.1,30.01,SSE,158,0.0,-999.0,93,0.00,,,0.13,Wunderground v.1.15,2013-06-25 00:36:00,
2013-06-24 20:38:00,72.2,70.1,30.01,SSE,158,0.0,-999.0,93,0.00,,,0.13,Wunderground v.1.15,2013-06-25 00:38:00,
2013-06-24 20:41:00,72.2,70.1,30.01,SSE,158,0.0,-999.0,93,0.00,,,0.13,Wunderground v.1.15,2013-06-25 00:41:00,
2013-06-24 20:43:00,72.2,70.1,30.01,SSE,158,0.0,-999.0,93,0.00,,,0.13,Wunderground v.1.15,2013-06-25 00:43:00,
2013-06-24 20:46:00,71.6,69.8,30.01,N/A,-737280,0.0,-999.0,94,0.00,,,0.13,Wunderground v.1.15,2013-06-25 00:46:00,
2013-06-24 20:48:00,71.6,69.8,30.01,N/A,-737280,0.0,-999.0,94,0.00,,,0.13,Wunderground v.1.15,2013-06-25 00:48:00,
2013-06-24 20:51:00,71.6,69.8,30.01,N/A,-737280,0.0,-999.0,94,0.00,,,0.13,Wunderground v.1.15,2013-06-25 00:51:00,
2013-06-24 20:53:00,71.6,69.8,30.01,N/A,-737280,0.0,-999.0,94,0.00,,,0.13,Wunderground v.1.15,2013-06-25 00:53:00,
2013-06-24 20:56:00,71.0,69.5,30.01,SSE,158,0.0,-999.0,95,0.00,,,0.13,Wunderground v.1.15,2013-06-25 00:56:00,
2013-06-24 20:58:00,71.0,69.5,30.01,SSE,158,0.0,-999.0,95,0.00,,,0.13,Wunderground v.1.15,2013-06-25 00:58:00,
2013-06-24 21:01:00,71.0,69.5,30.01,SSE,158,0.0,-999.0,95,0.00,,,0.13,Wunderground v.1.15,2013-06-25 01:01:00,
2013-06-24 21:03:00,71.0,69.5,30.01,SSE,158,0.0,-999.0,95,0.00,,,0.13,Wunderground v.1.15,2013-06-25 01:03:00,
2013-06-24 21:06:00,70.4,68.9,30.01,N/A,-737280,0.0,-999.0,95,0.00,,,0.13,Wunderground v.1.15,2013-06-25 01:06:00,
2013-06-24 21:08:00,70.4,68.9,30.01,N/A,-737280,0.0,-999.0,95,0.00,,,0.13,Wunderground v.1.15,2013-06-25 01:08:00,
2013-06-24 21:11:00,70.4,68.9,30.01,N/A,-737280,0.0,-999.0,95,0.00,,,0.13,Wunderground v.1.15,2013-06-25 01:11:00,
2013-06-24 21:13:00,70.4,68.9,30.01,N/A,-737280,0.0,-999.0,95,0.00,,,0.13,Wunderground v.1.15,2013-06-25 01:13:00,
2013-06-24 21:16:00,70.0,68.5,30.01,N/A,-737280,0.0,-999.0,95,0.00,,,0.13,Wunderground v.1.15,2013-06-25 01:16:00,
2013-06-24 21:18:00,70.0,68.5,30.01,N/A,-737280,0.0,-999.0,95,0.00,,,0.13,Wunderground v.1.15,2013-06-25 01:18:00,
2013-06-24 21:21:00,70.0,68.5,30.01,N/A,-737280,0.0,-999.0,95,0.00,,,0.13,Wunderground v.1.15,2013-06-25 01:21:00,
2013-06-24 21:23:00,70.0,68.5,30.01,N/A,-737280,0.0,-999.0,95,0.00,,,0.13,Wunderground v.1.15,2013-06-25 01:23:00,
2013-06-24 21:26:00,69.7,68.5,30.01,N/A,-737280,0.0,-999.0,96,0.00,,,0.13,Wunderground v.1.15,2013-06-25 01:26:00,
2013-06-24 21:28:00,69.7,68.5,30.01,N/A,-737280,0.0,-999.0,96,0.00,,,0.13,Wunderground v.1.15,2013-06-25 01:28:00,
2013-06-24 21:31:00,69.7,68.5,30.01,N/A,-737280,0.0,-999.0,96,0.00,,,0.13,Wunderground v.1.15,2013-06-25 01:31:00,
2013-06-24 21:33:00,69.7,68.5,30.01,N/A,-737280,0.0,-999.0,96,0.00,,,0.13,Wunderground v.1.15,2013-06-25 01:33:00,
2013-06-24 21:36:00,69.4,68.2,30.02,SSE,158,0.0,-999.0,96,0.00,,,0.13,Wunderground v.1.15,2013-06-25 01:36:00,
2013-06-24 21:38:00,69.4,68.2,30.02,SSE,158,0.0,-999.0,96,0.00,,,0.13,Wunderground v.1.15,2013-06-25 01:38:00,
2013-06-24 21:41:00,69.4,68.2,30.02,SSE,158,0.0,-999.0,96,0.00,,,0.13,Wunderground v.1.15,2013-06-25 01:41:00,
2013-06-24 21:43:00,69.4,68.2,30.02,SSE,158,0.0,-999.0,96,0.00,,,0.13,Wunderground v.1.15,2013-06-25 01:43:00,
2013-06-24 21:48:00,69.2,68.3,30.02,N/A,-737280,0.0,-999.0,97,0.00,,,0.13,Wunderground v.1.15,2013-06-25 01:48:00,
2013-06-24 21:53:00,69.2,68.3,30.02,N/A,-737280,0.0,-999.0,97,0.00,,,0.13,Wunderground v.1.15,2013-06-25 01:53:00,
2013-06-24 21:58:00,69.1,68.2,30.02,N/A,-737280,0.0,-999.0,97,0.00,,,0.13,Wunderground v.1.15,2013-06-25 01:58:00,
2013-06-24 22:03:00,69.1,68.2,30.02,N/A,-737280,0.0,-999.0,97,0.00,,,0.13,Wunderground v.1.15,2013-06-25 02:03:00,
2013-06-24 22:08:00,68.9,68.0,30.02,N/A,-737280,0.0,-999.0,97,0.00,,,0.13,Wunderground v.1.15,2013-06-25 02:08:00,
2013-06-24 22:13:00,68.9,68.0,30.02,N/A,-737280,0.0,-999.0,97,0.00,,,0.13,Wunderground v.1.15,2013-06-25 02:13:00,
2013-06-24 22:18:00,69.0,68.4,30.02,SSE,158,0.0,-999.0,98,0.00,,,0.13,Wunderground v.1.15,2013-06-25 02:18:00,
2013-06-24 22:23:00,69.0,68.4,30.02,SSE,158,0.0,-999.0,98,0.00,,,0.13,Wunderground v.1.15,2013-06-25 02:23:00,
2013-06-24 22:28:00,69.1,68.5,30.02,SSE,158,1.0,-999.0,98,0.00,,,0.13,Wunderground v.1.15,2013-06-25 02:28:00,
2013-06-24 22:33:00,69.1,68.5,30.02,SSE,158,1.0,-999.0,98,0.00,,,0.13,Wunderground v.1.15,2013-06-25 02:33:00,
2013-06-24 22:38:00,69.2,68.6,30.03,N/A,-737280,0.0,-999.0,98,0.00,,,0.13,Wunderground v.1.15,2013-06-25 02:38:00,
2013-06-24 22:43:00,69.2,68.6,30.03,N/A,-737280,0.0,-999.0,98,0.00,,,0.13,Wunderground v.1.15,2013-06-25 02:43:00,
2013-06-24 22:48:00,69.1,68.5,30.03,SSE,158,0.0,-999.0,98,0.00,,,0.13,Wunderground v.1.15,2013-06-25 02:48:00,
2013-06-24 22:53:00,69.1,68.5,30.03,SSE,158,0.0,-999.0,98,0.00,,,0.13,Wunderground v.1.15,2013-06-25 02:53:00,
2013-06-24 22:58:00,69.1,68.5,30.03,N/A,-737280,0.0,-999.0,98,0.00,,,0.13,Wunderground v.1.15,2013-06-25 02:58:00,
2013-06-24 23:03:00,69.1,68.5,30.03,N/A,-737280,0.0,-999.0,98,0.00,,,0.13,Wunderground v.1.15,2013-06-25 03:03:00,
2013-06-24 23:08:00,69.3,69.0,30.02,N/A,-737280,0.0,-999.0,99,0.00,,,0.13,Wunderground v.1.15,2013-06-25 03:08:00,
2013-06-24 23:13:00,69.3,69.0,30.02,N/A,-737280,0.0,-999.0,99,0.00,,,0.13,Wunderground v.1.15,2013-06-25 03:13:00,
2013-06-24 23:18:00,69.4,69.1,30.02,SSE,158,0.0,-999.0,99,0.00,,,0.13,Wunderground v.1.15,2013-06-25 03:18:00,
2013-06-24 23:23:00,69.4,69.1,30.02,SSE,158,0.0,-999.0,99,0.00,,,0.13,Wunderground v.1.15,2013-06-25 03:23:00,
2013-06-24 23:28:00,69.4,69.1,30.02,N/A,-737280,0.0,-999.0,99,0.00,,,0.13,Wunderground v.1.15,2013-06-25 03:28:00,
2013-06-24 23:33:00,69.4,69.1,30.02,N/A,-737280,0.0,-999.0,99,0.00,,,0.13,Wunderground v.1.15,2013-06-25 03:33:00,
2013-06-24 23:38:00,69.5,69.2,30.01,SSE,158,0.0,-999.0,99,0.00,,,0.13,Wunderground v.1.15,2013-06-25 03:38:00,
2013-06-24 23:43:00,69.5,69.2,30.01,SSE,158,0.0,-999.0,99,0.00,,,0.13,Wunderground v.1.15,2013-06-25 03:43:00,
2013-06-24 23:48:00,69.2,68.9,30.02,SSE,158,0.0,-999.0,99,0.00,,,0.13,Wunderground v.1.15,2013-06-25 03:48:00,
2013-06-24 23:53:00,69.2,68.9,30.02,SSE,158,0.0,-999.0,99,0.00,,,0.13,Wunderground v.1.15,2013-06-25 03:53:00,
2013-06-24 23:58:00,69.2,68.9,30.01,N/A,-737280,0.0,-999.0,99,0.00,,,0.13,Wunderground v.1.15,2013-06-25 03:58:00,